Location: Falkner
(32.6954°N, 86.0502°W)
Time: 11:36:07
(UTC+00:00)

Cosmos 1892 - Pass Details

Date: 29 October 2020
Orbit: 504 x 524 km, 82.5° (Epoch: 04 December)

Event Time Altitude Azimuth Distance (km) Brightness Sun altitude
Rises 23:17:43 0° 11° (NNE) 2,660 6.1 -5.3°
Reaches altitude 10° 23:20:20 10° 29° (NNE) 1,767 5.0 -5.9°
Maximum altitude 23:23:12 20° 77° (ENE) 1,267 4.0 -6.5°
Drops below altitude 10° 23:26:03 10° 125° (SE) 1,756 5.0 -7.1°
Sets 23:28:38 0° 143° (SE) 2,638 6.0 -7.6°
